sat.trackr.live / text

‹ back to catalog

STARLINK-31606

NORAD 59571 · 2024-076H

PAYLOAD ACTIVE UNKNOWN

§ Identity

Operator
Country
US
Launch date
2024-04-23
Launch site
AFETR
Launch vehicle
Mass (kg)
RCS (m²)

Purposes: comms

External: N2YO · Heavens-Above · Gunter

§ Orbital elements

Epoch: 2026-05-25T04:00:03.998880Z

Period
94.27 min
Inclination
43.0003°
Eccentricity
0.0001534
Mean motion
15.27596884 rev/d
Perigee alt
481.9 km
Apogee alt
484.1 km
Semi-major
6,861.1 km
B*
-5.3652e-4
RAAN
296.6925°
Arg perigee
272.3180°
Mean anomaly
86.2697°
Rev number
584

§ Raw data

STARLINK-316061 59571U 24076H   26145.16671295 -.00015004  00000+0 -53652-3 0  99962 59571  43.0003 296.6925 0001534 272.3180  86.2697 15.27596884  5844

JSON: /api/v1/satellites/59571 · /tle

For live sub-satellite position, see the globe view (requires WebGL).

§ Visibility from observer

Set your observer location to see the next 7 days of passes ≥ 10°. The values pass through the URL so the page stays shareable.

No JS? Fill the form by hand. The geolocation button needs JavaScript.